Home   Weather   Paphos   Past weeks

Flag for Cyprus Past Weather in Paphos, Cyprus — Yesterday and Last 2 Weeks

70 °F

Passing clouds.

Feels Like: 70 °F
Forecast: 62 / 79 °F
Wind: 8 mph from North

Location: Paphos Airport

Current Time: Oct 25, 2016 at 10:10:14 PM

Latest Report: Oct 25, 2016 at 9:30 PM

Visibility: N/A

Pressure: 29.92 "Hg

Humidity: 60%

Dew Point: 55 °F

Location of PaphosLocation

Past Weather in Paphos — Graph


Paphos Temperature Yesterday

Maximum temperature yesterday: 81 °F (at 11:30 AM)
Minimum temperature yesterday: 64 °F (at 2:00 AM)
Average temperature yesterday: 73 °F

High & Low Weather Summary for the Past Weeks

High82 °F (Oct 12, 10:30 AM)88% (Oct 10, 11:30 PM)30.07 "Hg (Oct 10, 11:30 PM)
Low61 °F (Oct 15, 1:00 AM)48% (Oct 16, 1:30 PM)29.89 "Hg (Oct 18, 3:30 AM)
Average72 °F69%29.97 "Hg
* Reported Oct 10 9:00 PM — Oct 25 9:00 PM, Paphos, Weather by CustomWeather, © 2016

Note: Actual official high and low records may vary slightly from our data, if they occured in-between our weather recording intervals... More about our weather records


Paphos Weather History for the Previous 24 Hours

Scroll right to see more
Time TempWeatherWind HumidityBarometerVisibility
9:00 PM
Tue, Oct 25
70 °FClear.7 mph69%29.92 "Hg10 mi
8:30 PM70 °FClear.7 mph69%29.92 "Hg10 mi
8:00 PM70 °FPassing clouds.5 mph73%29.92 "HgN/A
7:30 PM72 °FClear.5 mph69%29.92 "Hg10 mi
7:00 PM73 °FClear.1 mph69%29.92 "Hg10 mi
6:30 PM77 °FClear.6 mph65%29.89 "Hg10 mi
6:00 PM77 °FSunny.7 mph69%29.89 "Hg10 mi
5:30 PM77 °FPassing clouds.9 mph69%29.89 "HgN/A
5:00 PM79 °FPassing clouds.10 mph61%29.89 "HgN/A
4:30 PM79 °FPassing clouds.10 mph70%29.92 "HgN/A
4:00 PM77 °FPassing clouds.12 mph69%29.92 "HgN/A
3:30 PM77 °FPassing clouds.12 mph69%29.92 "HgN/A
3:00 PM79 °FPassing clouds.12 mph65%29.92 "HgN/A
2:30 PM79 °FPassing clouds.12 mph65%29.92 "HgN/A
2:00 PM79 °FPassing clouds.12 mph61%29.92 "HgN/A
1:30 PM79 °FPassing clouds.10 mph61%29.92 "HgN/A
1:00 PM79 °FPassing clouds.9 mph65%29.95 "HgN/A
12:30 PM77 °FPassing clouds.9 mph69%29.95 "HgN/A
12:00 PM77 °FPassing clouds.9 mph69%29.95 "HgN/A
11:30 AM79 °FPassing clouds.9 mph65%29.95 "HgN/A
11:00 AM79 °FPassing clouds.5 mph58%29.95 "HgN/A
10:30 AM77 °FPassing clouds.3 mph57%29.95 "HgN/A
10:00 AM79 °FPassing clouds.3 mph54%29.95 "HgN/A
9:30 AM73 °FPassing clouds.5 mph57%N/AN/A
9:00 AM72 °FPassing clouds.7 mph61%29.95 "HgN/A
8:30 AM68 °FPassing clouds.7 mph73%29.95 "HgN/A
8:00 AM66 °FPassing clouds.7 mph78%29.95 "HgN/A
7:30 AM64 °FPassing clouds.8 mph83%29.95 "HgN/A
7:00 AM64 °FPassing clouds.7 mph83%29.92 "HgN/A
6:30 AM64 °FPassing clouds.7 mph83%29.92 "HgN/A
6:00 AM66 °FClear.7 mph78%29.92 "Hg10 mi
5:30 AM66 °FMild.8 mph78%29.92 "HgN/A
5:00 AM64 °FMild.7 mph88%29.92 "HgN/A
4:30 AM66 °FMild.9 mph83%29.92 "HgN/A
4:00 AM66 °FMild.10 mph83%29.92 "HgN/A
3:30 AM66 °FMild.7 mph83%29.92 "HgN/A
3:00 AM66 °FClear.8 mph83%29.92 "Hg10 mi
2:00 AM68 °FClear.7 mph78%29.95 "Hg10 mi
1:30 AM68 °FPassing clouds.8 mph83%29.92 "HgN/A
1:00 AM68 °FPassing clouds.5 mph83%29.95 "HgN/A
12:30 AM70 °FPassing clouds.5 mph78%29.95 "HgN/A
12:00 AM70 °FPassing clouds.5 mph83%29.95 "HgN/A
11:30 PM
Mon, Oct 24
70 °FPassing clouds.3 mph83%29.95 "HgN/A
11:00 PM72 °FPassing clouds.7 mph83%29.95 "HgN/A
10:30 PM70 °FPassing clouds.5 mph83%29.95 "HgN/A
10:00 PM68 °FPassing clouds.5 mph83%29.95 "HgN/A
Weather by CustomWeather, © 2016

See weather overviewHow to use our weather pages